Location: Commenchon
(49.6411°N, 3.1571°E)
Time: 21:18:48
(UTC+00:00)

Okean 1 Rocket - Pass Details

Date: 15 May 2026
Orbit: 600 x 626 km, 82.5° (Epoch: 10 June)

Event Time Altitude Azimuth Distance (km) Brightness Sun altitude
Rises 19:57:32 0° 204° (SSW) 2,881 6.3 -5.1°
Reaches altitude 10° 19:59:48 10° 210° (SSW) 1,984 5.6 -5.4°
Maximum altitude 20:04:03 47° 285° (WNW) 833 4.3 -5.9°
Drops below altitude 10° 20:08:22 10° 360° (N) 2,011 6.3 -6.5°
Sets 20:10:41 0° 6° (N) 2,924 7.0 -6.8°
